sat.trackr.live / text

‹ back to catalog

STARLINK-1304

NORAD 45376 · 2020-019S

PAYLOAD ACTIVE UNKNOWN

§ Identity

Operator
Country
US
Launch date
2020-03-18
Launch site
AFETR
Launch vehicle
Mass (kg)
RCS (m²)

Purposes: comms

External: N2YO · Heavens-Above · Gunter

§ Orbital elements

Epoch: 2026-05-25T03:20:52.001664Z

Period
92.26 min
Inclination
53.0417°
Eccentricity
0.0006220
Mean motion
15.60790302 rev/d
Perigee alt
381.2 km
Apogee alt
389.6 km
Semi-major
6,763.5 km
B*
1.0247e-3
RAAN
139.9813°
Arg perigee
26.5062°
Mean anomaly
333.6267°
Rev number
34,186

§ Raw data

STARLINK-13041 45376U 20019S   26145.13949076  .00087432  00000+0  10247-2 0  99932 45376  53.0417 139.9813 0006220  26.5062 333.6267 15.60790302341867

JSON: /api/v1/satellites/45376 · /tle

For live sub-satellite position, see the globe view (requires WebGL).

§ Visibility from observer

Set your observer location to see the next 7 days of passes ≥ 10°. The values pass through the URL so the page stays shareable.

No JS? Fill the form by hand. The geolocation button needs JavaScript.